Theta_e
303 303 302 301 301 302 304 305 305 305 305 305 305 304 303 303 302 297 292 295 291 282 282 284 284 286 289 288 285 287 284 283 281 278 276 274 272 274 275 279 279 278 278 276 277 272 268 287 286 281 279 281 279 279
303 302 302 301 301 301 301 301 304 304 305 305 305 304 303 302 301 301 291 293 292 285 283 287 286 288 287 287 289 287 285 283 286 280 278 278 272 274 274 269 283 276 282 278 280 277 283 281 277 276 276 276 275 275
300 302 302 301 301 301 300 300 300 302 303 304 304 303 303 303 301 298 292 291 292 285 285 285 283 287 291 291 292 286 284 289 286 289 283 281 273 279 271 273 278 281 284 279 280 278 279 276 274 273 274 273 273 273
298 300 302 301 300 300 300 299 299 300 300 301 302 301 300 299 298 295 288 289 292 286 280 281 289 285 290 294 292 292 290 290 289 287 282 281 275 281 278 279 278 276 281 279 279 272 275 274 271 271 272 271 270 270
296 297 299 300 300 300 299 298 297 297 298 298 299 300 298 298 296 292 289 288 288 288 280 281 285 284 286 291 291 292 290 288 284 281 279 275 281 279 278 279 273 269 266 272 270 267 267 270 270 270 267 267 268 268
295 295 296 297 298 299 298 298 298 297 296 298 297 297 296 295 294 292 285 288 287 287 285 277 283 280 281 285 286 287 287 286 283 282 281 279 282 280 271 268 266 266 267 267 266 266 266 268 269 267 265 266 266 266
294 295 295 295 295 296 296 297 296 296 295 295 296 295 294 293 287 282 281 283 288 287 283 279 278 280 278 279 280 280 285 283 283 281 281 279 279 279 272 267 264 264 264 265 265 265 267 265 263 264 265 265 265 264
294 294 294 294 294 294 295 295 295 295 295 293 293 294 294 293 290 282 284 287 287 285 284 275 271 273 277 277 278 280 279 278 280 279 273 272 276 272 266 264 264 264 264 264 263 263 262 263 263 262 263 263 261 262
293 293 293 293 293 294 294 294 294 294 294 292 290 290 287 282 277 278 288 287 281 281 273 271 270 268 275 274 279 280 278 273 276 274 267 268 264 263 261 263 263 262 261 260 261 261 261 259 259 260 260 259 259 260
292 292 292 292 292 292 293 293 293 292 292 292 288 282 277 277 286 286 279 277 274 270 271 264 266 264 271 273 269 271 276 275 266 265 266 262 261 261 262 259 261 261 261 260 256 255 254 253 255 257 258 259 260 260
291 291 291 291 291 291 291 291 292 289 290 282 278 275 280 285 281 275 267 267 266 263 263 261 261 263 269 267 266 272 272 272 266 263 263 258 258 260 259 256 258 259 259 257 256 256 255 255 255 256 256 256 257 258
290 290 291 291 291 291 290 290 289 281 275 276 277 278 278 274 272 268 261 263 261 257 258 259 261 263 264 268 265 266 266 265 260 262 260 257 261 256 255 253 253 252 251 251 251 252 254 256 255 256 256 255 257 260
289 289 290 290 290 290 289 288 287 284 281 279 274 268 271 267 264 261 259 261 258 258 256 257 258 262 264 267 263 264 260 260 262 259 259 261 258 254 252 250 250 248 249 248 249 250 251 255 255 253 254 256 260 260
288 288 289 290 289 288 288 286 285 283 276 269 267 262 262 259 257 255 256 255 257 259 256 258 258 261 260 263 264 260 263 262 257 256 259 256 255 253 249 249 249 249 248 249 249 254 254 255 256 255 255 257 258 258
287 286 287 287 289 287 286 284 282 272 269 264 264 256 255 255 254 252 251 253 255 256 257 256 257 265 258 259 261 260 258 255 259 260 257 254 251 251 249 249 248 248 248 249 252 254 255 256 253 255 255 257 257 258
286 284 282 287 287 284 284 277 273 268 263 261 259 257 253 256 253 252 253 252 255 258 255 255 255 256 256 256 256 255 259 257 260 256 254 253 251 249 249 249 249 249 249 250 251 251 250 251 250 253 256 256 256 257
284 275 284 286 285 281 281 272 267 262 261 259 254 253 255 256 255 253 254 254 257 253 254 255 255 256 258 255 254 257 258 257 254 254 254 254 253 252 251 253 254 253 254 253 251 250 248 249 249 252 252 255 256 257
274 277 284 284 279 275 265 266 264 261 256 256 257 253 253 253 253 251 251 253 253 254 253 255 256 254 254 254 256 257 254 253 254 254 254 253 253 254 257 258 258 257 256 255 253 251 250 249 250 252 252 253 254 254
277 279 282 281 275 267 263 261 262 257 252 252 253 254 252 250 250 251 250 251 251 251 252 252 251 252 256 257 256 254 253 253 254 255 255 256 258 259 258 258 257 255 254 252 251 252 251 250 250 251 252 252 251 253
280 280 280 277 277 267 260 259 260 260 255 254 253 253 253 251 249 248 247 249 251 249 250 250 255 258 260 257 255 255 255 256 256 254 257 257 258 257 257 256 255 253 251 251 250 252 250 250 250 251 250 250 249 249
275 274 276 270 264 261 258 255 255 253 252 254 251 253 252 250 249 248 248 249 248 251 253 257 256 253 250 250 252 255 259 261 260 260 260 259 258 257 255 253 252 250 249 249 249 248 250 249 250 249 249 248 249 248
268 275 267 269 264 258 256 253 255 253 254 250 252 251 252 251 250 247 246 246 251 255 257 255 253 250 247 249 249 250 251 254 254 252 253 254 253 252 251 251 250 248 249 248 247 248 248 249 248 248 247 247 248 248
271 269 264 263 261 258 253 252 254 251 255 253 250 253 252 250 247 247 247 251 255 252 247 247 245 243 247 242 243 243 243 250 249 249 249 248 247 247 247 247 248 249 248 249 249 249 248 250 248 247 246 246 245 245
267 258 257 256 256 254 252 252 253 252 252 252 253 252 251 248 246 247 250 253 254 245 245 244 244 245 244 243 244 247 247 245 246 246 246 249 246 246 248 248 248 249 249 247 247 246 246 246 248 245 245 243 242 242
262 260 257 255 252 255 255 253 252 253 253 249 250 251 249 243 249 249 251 256 251 247 247 244 245 247 249 249 249 248 244 250 251 251 246 249 246 245 245 245 247 249 248 246 245 246 245 244 244 244 243 242 242 241
260 255 257 257 255 259 257 257 254 254 250 250 249 246 244 248 249 253 255 255 253 251 250 252 253 250 250 253 250 248 250 247 248 249 248 252 253 252 251 250 248 251 251 250 249 248 246 245 243 243 242 243 245 242
262 258 250 246 251 253 252 250 250 252 252 253 252 249 251 252 253 257 256 254 253 250 250 251 256 257 256 253 252 247 246 252 251 250 247 250 252 254 254 254 252 253 251 251 249 248 248 247 244 243 243 242 242 242
258 255 260 253 252 251 255 254 255 255 257 256 256 254 255 257 259 258 257 253 248 247 247 247 248 249 251 254 252 251 247 247 246 246 246 247 246 247 247 246 247 255 250 250 249 248 245 246 245 244 243 243 243 242
255 253 256 254 252 253 256 259 258 258 256 256 258 258 259 260 255 252 253 250 247 247 247 248 248 244 245 246 247 252 250 251 253 252 253 254 252 254 251 250 249 249 249 249 254 250 247 247 246 245 245 243 243 240
252 251 257 256 258 259 257 254 254 249 250 250 248 249 252 253 253 250 249 248 248 249 248 247 245 245 246 247 247 246 249 253 256 258 258 258 258 252 250 251 251 251 250 249 250 249 255 252 251 247 244 243 241 241
250 251 255 257 257 254 250 248 248 248 248 248 246 246 247 247 248 249 248 247 245 243 244 245 243 243 245 247 249 248 250 251 253 255 256 256 254 253 252 252 253 252 251 251 250 249 249 248 247 248 243 241 240 241
251 254 255 255 255 250 249 251 251 250 250 248 249 245 247 246 248 252 248 246 244 245 246 244 242 244 244 245 246 248 253 252 253 255 256 256 256 256 255 254 253 252 251 251 251 250 249 249 248 247 243 243 242 240
251 251 251 253 253 254 252 251 251 249 248 247 249 248 247 247 250 253 249 248 249 247 245 244 242 242 243 244 245 247 251 250 252 258 257 258 258 257 255 254 253 252 252 251 251 250 249 248 248 246 244 243 243 242
Wind_Speed
36 36 37 37 36 34 30 24 23 21 20 18 14 11 9 9 14 4 1 9 6 7 7 9 8 6 8 5 11 8 6 3 3 5 5 3 4 5 4 6 6 7 7 4 3 3 7 3 4 3 4 9 12 11
35 35 34 33 32 32 34 33 25 21 17 18 16 14 8 9 6 2 6 5 10 11 5 1 6 9 5 4 9 1 3 5 5 6 2 4 3 3 5 3 3 3 6 6 8 5 3 13 16 11 10 5 9 10
35 34 32 32 33 33 32 30 28 25 20 20 18 16 17 14 8 11 5 4 8 5 5 6 6 10 12 6 5 6 3 4 4 1 4 2 5 4 4 4 3 2 1 3 5 8 8 14 12 12 10 10 11 11
33 33 32 30 30 30 30 31 28 25 25 21 22 22 24 24 21 12 7 4 5 6 5 3 6 6 15 7 6 5 7 7 6 4 4 3 4 0 2 3 4 0 3 2 1 7 7 11 13 15 13 12 14 13
33 32 31 29 28 28 28 29 29 29 25 20 21 22 26 28 28 18 8 6 6 3 5 3 1 10 14 14 16 12 7 6 3 4 4 3 2 4 1 3 4 6 4 1 2 6 4 7 16 15 16 19 17 19
32 31 30 29 28 27 26 26 25 25 26 27 21 11 6 4 3 2 5 4 7 3 6 4 1 7 9 9 14 15 6 5 3 4 3 2 1 3 3 3 3 5 5 5 2 8 9 11 9 17 17 18 19 19
30 30 29 28 28 26 24 23 22 21 18 18 22 26 21 15 9 8 3 4 12 3 6 5 3 5 5 4 4 4 5 3 4 3 3 2 3 4 3 3 5 4 2 2 5 6 1 10 10 15 16 17 16 16
28 28 29 29 27 26 26 24 21 19 15 11 13 14 16 22 16 6 7 14 3 5 5 5 1 3 7 3 3 4 3 3 6 3 4 3 2 3 1 7 6 3 3 3 6 5 4 8 9 12 12 13 14 15
28 28 28 28 29 29 28 27 23 18 13 8 4 5 3 8 5 2 16 5 4 6 6 5 3 2 6 1 1 2 2 4 3 3 2 3 2 3 4 7 5 3 2 0 4 4 2 4 7 8 10 11 12 14
26 26 27 28 28 29 30 31 27 16 11 6 7 6 5 3 10 8 5 5 9 7 6 5 2 2 4 2 2 2 2 2 3 2 2 4 2 3 5 4 3 3 2 2 2 1 3 1 4 9 9 9 10 11
23 26 25 26 26 27 28 29 29 17 15 6 5 2 3 11 3 6 6 8 5 7 6 2 3 2 5 3 2 2 2 2 3 4 4 1 5 4 6 5 3 1 1 1 1 0 1 4 6 6 7 6 7 8
20 22 24 24 25 25 26 26 25 9 2 3 2 1 2 7 5 10 3 4 8 1 4 2 3 2 3 2 3 4 3 4 2 2 4 4 3 4 6 5 4 3 1 2 2 3 5 5 6 5 7 5 5 7
16 20 22 25 24 23 22 22 18 6 1 2 5 8 6 6 12 7 4 4 4 4 4 4 2 2 3 3 3 3 5 3 2 2 6 5 4 4 5 5 2 2 4 4 5 4 4 5 8 4 6 5 5 6
15 15 17 24 24 24 21 20 17 4 6 6 6 9 5 5 4 2 1 1 1 2 3 3 2 2 2 4 1 6 1 4 2 1 8 3 6 6 4 3 4 2 1 0 3 3 3 5 6 7 5 4 4 6
15 12 14 20 23 21 21 15 16 7 6 6 6 5 5 2 3 1 0 1 2 2 2 2 2 1 3 4 2 4 4 3 7 7 3 2 4 6 5 3 4 3 2 2 2 1 2 4 5 5 6 3 4 5
13 5 9 25 20 17 20 8 7 5 6 6 9 5 1 2 0 1 1 1 2 2 1 1 1 4 2 3 3 6 5 7 5 3 2 5 6 5 5 5 5 4 3 2 2 2 3 4 4 4 7 3 4 5
8 3 18 21 17 10 19 6 5 9 6 6 3 1 1 2 3 1 2 1 2 2 1 2 5 6 1 3 3 3 6 4 3 1 2 4 7 6 6 5 5 4 3 3 2 3 4 4 4 2 4 5 5 5
3 5 15 19 10 5 5 7 6 6 7 2 2 1 1 1 3 1 1 1 2 1 2 3 1 2 5 4 5 3 1 0 2 3 3 3 4 5 5 5 5 4 3 3 4 4 3 2 2 2 4 4 5 4
3 5 14 16 7 5 5 6 5 6 1 0 1 1 2 2 1 1 2 1 2 1 2 2 3 4 5 4 4 3 2 3 4 2 3 4 5 5 5 4 4 3 4 3 3 3 3 4 3 2 2 2 2 3
5 7 12 11 8 5 6 4 2 5 2 3 2 1 2 2 1 2 2 1 1 2 2 3 7 5 5 4 3 3 3 4 4 3 2 2 3 5 5 5 4 4 3 3 3 4 2 2 2 1 1 2 2 3
3 5 8 5 5 8 6 2 5 2 2 2 0 1 2 1 1 1 1 1 2 5 5 6 5 2 2 2 1 2 3 5 3 3 3 5 5 5 4 3 3 2 3 3 3 3 4 4 3 1 2 3 3 3
2 6 3 5 5 4 6 2 3 1 3 2 1 1 1 1 2 1 1 1 5 6 5 4 3 4 3 3 4 2 3 5 4 4 3 5 4 3 2 4 4 4 4 4 4 4 4 3 2 1 2 3 3 3
4 3 4 4 7 6 3 0 4 3 3 2 2 2 2 0 1 1 3 5 6 2 1 2 2 2 4 0 2 1 3 6 4 4 4 4 3 3 2 3 4 4 3 4 3 3 3 3 2 2 2 2 2 3
8 7 5 3 3 2 1 3 2 2 2 2 2 2 2 2 2 2 5 5 4 0 1 3 3 3 3 2 3 4 5 3 2 1 3 5 3 4 5 5 4 5 4 3 3 3 3 3 3 2 2 1 2 2
5 2 4 2 2 5 3 2 2 3 2 1 2 3 2 2 1 3 5 6 2 3 3 3 2 3 4 3 2 3 4 7 7 7 4 4 3 3 1 2 3 5 4 4 3 4 4 3 3 3 2 2 4 5
2 2 2 4 0 4 5 4 5 6 3 2 5 1 1 3 1 7 5 4 3 4 5 7 7 3 4 6 3 3 5 6 5 4 4 8 8 6 5 5 3 5 7 5 5 6 4 4 4 4 3 5 5 3
5 6 1 0 1 4 4 2 2 2 4 6 4 3 3 2 7 7 3 2 2 3 2 3 5 6 3 3 3 2 2 8 6 4 1 4 5 5 5 5 6 5 7 9 6 5 6 6 4 4 4 3 4 4
2 3 6 5 2 1 5 3 5 7 4 3 4 4 7 9 7 4 3 1 2 0 2 3 3 2 2 2 2 5 2 3 3 1 2 2 2 2 3 2 2 7 5 6 6 5 5 5 6 5 5 5 4 3
2 1 3 4 2 3 5 6 6 3 2 4 4 5 6 4 2 2 2 2 1 2 2 2 3 1 1 1 1 3 5 8 10 7 7 4 1 4 7 5 4 4 4 5 6 7 8 7 7 6 6 4 4 3
3 1 1 3 6 6 1 1 1 2 2 1 2 4 4 4 4 1 1 2 1 4 3 2 2 3 4 4 3 3 4 6 7 4 4 5 5 3 5 6 7 7 6 5 5 3 4 4 2 3 2 0 0 1
0 1 0 1 1 1 2 1 1 1 0 1 1 2 4 7 7 3 3 3 2 2 1 2 3 3 4 4 4 3 4 6 10 8 2 2 3 4 4 5 5 6 6 6 6 4 4 3 3 3 3 4 4 4
2 2 2 2 1 2 1 1 0 1 2 2 2 2 3 3 6 4 2 3 2 2 5 3 2 4 3 3 3 3 0 1 3 7 9 6 4 4 5 5 5 5 6 6 5 5 5 5 4 5 5 6 5 5
1 0 0 1 1 2 1 0 0 3 1 2 3 2 2 3 7 4 2 3 4 3 3 4 4 3 4 4 4 4 3 2 2 4 6 8 8 8 5 4 5 5 7 5 5 5 6 6 5 5 5 6 7 6
Wind_Direction
35 39 45 44 45 48 45 78 84 95 102 109 108 98 101 107 121 60 307 1 108 86 41 6 4 26 102 122 144 172 93 1 47 81 118 168 119 212 109 165 178 154 154 181 161 191 287 355 78 173 10 43 18 8
30 35 39 43 50 50 48 52 62 84 96 108 109 105 101 88 76 74 67 28 56 72 103 321 86 54 41 305 126 70 125 142 156 97 94 107 107 123 154 208 214 165 173 181 177 169 61 45 87 63 35 23 13 3
23 30 37 40 45 51 50 51 51 60 70 86 96 90 92 85 101 106 92 341 60 88 76 32 355 338 354 350 278 116 332 112 66 65 134 137 123 130 149 236 112 277 343 152 82 1 83 102 77 42 10 26 6 0
23 23 29 36 41 47 51 54 55 55 61 82 100 101 99 91 83 72 74 339 70 103 90 38 335 17 325 341 25 54 111 57 83 54 88 107 121 183 139 161 130 329 359 224 208 60 113 89 46 6 7 0 351 342
26 26 26 30 33 37 39 42 48 50 55 67 71 84 94 93 86 78 77 53 42 95 125 114 242 358 0 18 46 46 67 93 78 69 61 91 108 84 350 57 68 6 23 45 119 53 340 298 348 2 2 348 343 338
21 25 26 25 24 28 29 30 34 43 49 54 57 64 97 108 25 97 84 23 13 351 101 76 101 352 354 2 36 39 32 48 77 94 95 64 42 86 110 126 100 72 51 43 7 333 279 287 304 7 344 341 335 328
19 18 22 23 21 19 18 20 25 33 46 57 64 69 70 80 67 55 78 305 323 330 89 90 54 359 340 345 27 5 7 47 70 91 57 78 36 26 89 169 141 107 65 14 69 346 74 23 328 331 337 334 332 320
18 19 17 15 18 18 15 12 11 16 32 62 70 77 80 92 105 41 10 10 343 82 70 103 127 45 5 19 43 342 18 29 19 86 29 37 27 28 130 138 134 79 349 116 39 37 300 307 323 330 334 329 332 323
18 17 16 16 13 10 10 11 8 5 11 23 63 118 74 39 43 281 321 332 42 74 102 61 86 162 339 80 93 45 3 60 350 72 41 54 335 228 136 148 151 129 134 320 333 302 290 327 322 326 334 332 325 320
16 17 15 14 13 12 7 3 6 3 2 15 40 38 24 307 309 313 360 30 26 14 32 83 278 28 338 336 51 63 352 89 82 278 20 58 265 116 121 124 132 146 144 122 187 196 303 342 340 326 329 324 306 316
14 15 16 15 15 13 10 5 358 1 25 35 42 69 269 319 28 33 42 45 339 37 15 357 51 36 339 61 103 8 112 77 118 263 107 283 280 192 141 134 113 115 118 178 163 269 229 250 287 313 315 281 292 319
9 14 16 15 12 13 12 10 4 32 57 150 142 344 6 27 29 71 27 359 40 108 347 38 341 1 320 317 82 330 93 41 170 169 78 265 211 143 142 162 167 157 128 353 357 299 282 287 285 276 264 280 302 328
6 8 10 12 12 10 12 11 9 24 304 1 43 44 31 320 39 58 5 352 44 348 346 338 2 341 335 353 45 76 83 183 88 82 223 220 150 148 152 145 110 66 50 23 330 317 332 313 295 268 281 287 326 332
4 2 5 8 6 4 4 6 10 13 62 63 48 29 60 4 49 45 31 76 285 359 356 334 334 57 279 44 331 87 272 81 65 251 236 214 188 158 149 143 105 123 132 229 301 305 320 300 289 292 286 303 334 329
359 1 7 0 360 359 358 5 22 39 55 57 48 56 57 202 37 69 299 21 349 300 328 335 343 48 349 71 27 87 41 256 202 231 224 182 150 139 145 153 156 180 195 198 218 239 301 276 281 294 297 314 324 328
352 47 4 351 355 358 356 21 28 66 53 59 44 81 321 89 272 172 247 111 274 323 326 357 92 54 359 113 62 214 150 223 239 188 166 125 150 159 156 158 175 180 183 232 264 253 264 276 268 275 296 324 327 323
34 33 340 348 352 6 16 61 49 46 82 54 19 341 40 75 124 110 33 96 306 46 66 50 63 212 8 33 280 198 208 226 192 129 119 147 164 174 167 155 160 169 199 227 247 258 244 265 296 326 315 315 335 313
52 304 349 353 1 32 34 26 74 71 63 30 95 237 66 20 101 84 81 20 42 57 54 184 96 89 199 199 256 240 144 257 50 139 142 136 124 134 146 158 163 173 194 215 231 248 239 293 286 271 300 308 315 322
279 342 356 2 28 74 63 15 41 94 149 105 86 22 67 112 71 53 72 40 41 27 65 42 89 207 236 219 205 225 187 170 171 187 126 135 143 155 154 148 150 183 206 213 216 228 226 215 214 246 274 314 303 304
356 10 1 18 29 72 58 3 33 89 125 200 73 77 72 99 123 75 82 78 117 78 53 198 216 217 192 210 176 170 164 138 116 101 147 174 165 160 178 173 190 171 198 228 236 220 237 271 214 216 277 278 295 291
354 341 6 52 45 58 80 2 52 76 133 98 228 132 128 125 143 175 180 344 57 214 236 220 225 210 66 84 81 116 120 142 175 165 162 169 174 172 161 178 165 165 194 207 207 240 202 217 214 224 260 274 269 269
288 352 54 18 79 53 78 352 114 168 78 164 89 70 156 192 205 200 158 101 235 235 204 187 207 141 133 192 212 196 153 109 85 97 77 103 134 156 204 189 153 208 212 217 198 209 222 209 186 237 263 276 308 292
5 24 44 38 72 46 284 76 80 349 105 237 48 46 280 199 242 165 261 220 247 230 126 124 142 63 124 151 56 28 203 157 168 179 174 182 166 159 142 172 168 176 210 250 188 188 201 183 228 240 281 309 311 311
27 52 66 67 67 172 20 22 42 75 49 59 105 274 249 196 323 94 252 251 238 129 129 201 138 84 28 25 233 217 196 164 157 157 179 153 180 241 195 205 197 205 195 164 159 183 197 212 200 219 230 239 287 273
67 346 87 331 339 93 102 96 13 65 224 226 93 296 286 26 5 248 236 266 248 229 197 153 189 228 178 218 234 209 175 168 182 200 222 182 144 62 11 234 222 210 165 151 201 193 220 191 191 205 231 231 259 286
216 318 138 183 246 148 175 151 187 192 151 184 228 218 63 81 36 247 237 231 233 193 182 192 189 178 248 211 198 182 214 181 134 177 238 182 191 181 183 180 201 261 188 182 158 184 191 193 193 206 247 262 249 249
230 215 159 9 31 111 86 62 77 126 164 197 193 147 118 220 241 247 265 239 182 220 197 188 186 206 219 195 206 191 138 162 169 192 224 183 194 195 165 178 200 225 159 174 168 161 177 188 189 201 227 258 237 219
132 166 173 167 140 308 138 145 164 196 211 182 113 188 194 204 237 239 207 191 154 248 261 254 240 217 198 183 152 126 103 117 89 21 343 313 248 215 192 146 133 148 142 157 162 159 161 171 183 196 208 228 252 246
116 207 143 108 123 197 218 189 203 196 135 158 184 229 238 238 255 225 231 169 130 71 334 304 280 178 327 287 271 180 144 161 158 175 214 230 246 242 190 176 169 153 150 150 186 172 186 187 190 196 207 208 225 209
192 279 115 156 166 211 186 26 85 49 12 17 331 301 274 263 250 189 167 169 201 234 228 213 219 160 217 180 219 240 217 204 221 197 179 201 214 157 152 170 178 177 171 170 176 192 273 126 118 97 120 349 328 299
71 211 285 174 189 73 57 67 91 56 328 301 54 239 274 308 306 246 198 199 149 85 47 290 286 229 209 229 209 185 256 208 218 223 204 126 134 149 162 167 162 158 161 165 166 170 157 157 172 194 210 238 256 243
178 209 167 163 200 135 200 230 84 260 177 250 230 216 278 310 278 278 189 117 106 249 239 195 210 269 244 272 284 258 4 120 163 195 192 193 185 163 148 141 140 144 151 160 164 168 185 196 198 205 216 240 243 243
95 279 56 67 153 200 168 238 41 318 262 265 247 204 244 237 255 288 285 210 206 208 237 232 234 239 250 253 259 262 210 164 159 177 179 184 175 154 137 141 147 155 159 164 173 179 191 197 214 222 232 241 251 255